Time,TemperatureF,DewpointF,PressureIn,WindDirection,WindDirectionDegrees,WindSpeedMPH,WindSpeedGustMPH,Humidity,HourlyPrecipIn,Conditions,Clouds,dailyrainin,SoftwareType,DateUTC
2013-03-12 00:04:00,33.3,31.0,29.87,WSW,251,18.0,20.0,91,0.00,,,0.00,Wunderground v.1.15,2013-03-12 05:04:00,
2013-03-12 00:09:00,33.3,31.0,29.87,WSW,248,19.0,20.0,91,0.00,,,0.00,Wunderground v.1.15,2013-03-12 05:09:00,
2013-03-12 00:14:00,33.3,31.0,29.87,WSW,257,19.0,26.0,91,0.00,,,0.00,Wunderground v.1.15,2013-03-12 05:14:00,
2013-03-12 00:19:00,33.4,31.1,29.87,WSW,254,20.0,26.0,91,0.00,,,0.00,Wunderground v.1.15,2013-03-12 05:19:00,
2013-03-12 00:24:00,33.5,30.9,29.87,WSW,252,19.0,22.0,90,0.00,,,0.00,Wunderground v.1.15,2013-03-12 05:24:00,
2013-03-12 00:30:00,33.4,30.8,29.87,WSW,250,18.0,21.0,90,0.00,,,0.00,Wunderground v.1.15,2013-03-12 05:30:00,
2013-03-12 00:35:00,33.5,30.6,29.87,WSW,247,18.0,21.0,89,0.00,,,0.00,Wunderground v.1.15,2013-03-12 05:35:00,
2013-03-12 00:40:00,33.6,30.7,29.87,WSW,256,17.0,20.0,89,0.00,,,0.00,Wunderground v.1.15,2013-03-12 05:40:00,
2013-03-12 00:46:00,33.5,30.6,29.87,West,267,16.0,20.0,89,0.00,,,0.00,Wunderground v.1.15,2013-03-12 05:46:00,
2013-03-12 00:51:00,33.5,30.6,29.87,WSW,257,17.0,19.0,89,0.00,,,0.00,Wunderground v.1.15,2013-03-12 05:51:00,
2013-03-12 00:56:00,33.5,30.6,29.87,West,266,16.0,20.0,89,0.00,,,0.00,Wunderground v.1.15,2013-03-12 05:56:00,
2013-03-12 01:02:00,33.4,30.5,29.87,WSW,244,16.0,20.0,89,0.00,,,0.00,Wunderground v.1.15,2013-03-12 06:02:00,
2013-03-12 01:07:00,33.4,30.5,29.87,West,265,16.0,20.0,89,0.00,,,0.00,Wunderground v.1.15,2013-03-12 06:07:00,
2013-03-12 01:12:00,33.4,30.8,29.87,West,267,16.0,20.0,90,0.00,,,0.00,Wunderground v.1.15,2013-03-12 06:12:00,
2013-03-12 01:17:00,33.5,30.6,29.88,WSW,254,15.0,21.0,89,0.00,,,0.00,Wunderground v.1.15,2013-03-12 06:17:00,
2013-03-12 01:23:00,33.5,30.6,29.88,WSW,248,16.0,20.0,89,0.00,,,0.00,Wunderground v.1.15,2013-03-12 06:23:00,
2013-03-12 01:28:00,33.5,30.6,29.88,West,261,16.0,25.0,89,0.00,,,0.00,Wunderground v.1.15,2013-03-12 06:28:00,
2013-03-12 01:33:00,33.5,30.6,29.88,West,261,17.0,20.0,89,0.00,,,0.00,Wunderground v.1.15,2013-03-12 06:33:00,
2013-03-12 01:39:00,33.5,30.3,29.89,WSW,253,19.0,21.0,88,0.00,,,0.00,Wunderground v.1.15,2013-03-12 06:39:00,
2013-03-12 01:44:00,33.5,30.3,29.89,West,276,18.0,20.0,88,0.00,,,0.00,Wunderground v.1.15,2013-03-12 06:44:00,
2013-03-12 01:49:00,33.5,30.3,29.89,West,264,16.0,21.0,88,0.00,,,0.00,Wunderground v.1.15,2013-03-12 06:49:00,
2013-03-12 01:54:00,33.5,30.3,29.89,WSW,256,17.0,21.0,88,0.00,,,0.00,Wunderground v.1.15,2013-03-12 06:54:00,
2013-03-12 01:59:00,33.5,30.3,29.89,WSW,246,17.0,21.0,88,0.00,,,0.00,Wunderground v.1.15,2013-03-12 06:59:00,
2013-03-12 02:05:00,33.5,30.3,29.89,WNW,284,15.0,21.0,88,0.00,,,0.00,Wunderground v.1.15,2013-03-12 07:05:00,
2013-03-12 02:10:00,33.4,29.9,29.89,West,261,17.0,17.0,87,0.00,,,0.00,Wunderground v.1.15,2013-03-12 07:10:00,
2013-03-12 02:16:00,33.3,30.1,29.89,WNW,286,18.0,20.0,88,0.00,,,0.00,Wunderground v.1.15,2013-03-12 07:16:00,
2013-03-12 02:21:00,33.2,30.0,29.89,WSW,258,17.0,20.0,88,0.00,,,0.00,Wunderground v.1.15,2013-03-12 07:21:00,
2013-03-12 02:26:00,33.2,30.0,29.89,WNW,288,15.0,20.0,88,0.00,,,0.00,Wunderground v.1.15,2013-03-12 07:26:00,
2013-03-12 02:32:00,33.0,30.1,29.89,West,264,14.0,20.0,89,0.00,,,0.00,Wunderground v.1.15,2013-03-12 07:32:00,
2013-03-12 02:37:00,32.9,30.0,29.89,WSW,255,15.0,22.0,89,0.00,,,0.00,Wunderground v.1.15,2013-03-12 07:37:00,
2013-03-12 02:42:00,32.9,30.0,29.89,West,263,14.0,22.0,89,0.00,,,0.00,Wunderground v.1.15,2013-03-12 07:42:00,
2013-03-12 02:47:00,32.9,30.0,29.89,WSW,250,14.0,22.0,89,0.00,,,0.00,Wunderground v.1.15,2013-03-12 07:47:00,
2013-03-12 02:52:00,32.8,29.9,29.89,West,264,15.0,20.0,89,0.00,,,0.00,Wunderground v.1.15,2013-03-12 07:52:00,
2013-03-12 02:58:00,32.8,29.9,29.89,West,276,16.0,20.0,89,0.00,,,0.00,Wunderground v.1.15,2013-03-12 07:58:00,
2013-03-12 03:03:00,32.8,29.9,29.89,West,265,14.0,20.0,89,0.00,,,0.00,Wunderground v.1.15,2013-03-12 08:03:00,
2013-03-12 03:08:00,32.7,30.1,29.90,West,275,14.0,20.0,90,0.00,,,0.00,Wunderground v.1.15,2013-03-12 08:08:00,
2013-03-12 03:13:00,32.8,30.2,29.90,WSW,257,13.0,20.0,90,0.00,,,0.00,Wunderground v.1.15,2013-03-12 08:13:00,
2013-03-12 03:18:00,32.8,29.9,29.90,West,269,13.0,20.0,89,0.00,,,0.00,Wunderground v.1.15,2013-03-12 08:18:00,
2013-03-12 03:23:00,32.9,30.0,29.90,WSW,257,15.0,20.0,89,0.00,,,0.00,Wunderground v.1.15,2013-03-12 08:23:00,
2013-03-12 03:29:00,32.9,29.7,29.90,WSW,257,17.0,21.0,88,0.00,,,0.00,Wunderground v.1.15,2013-03-12 08:29:00,
2013-03-12 03:34:00,32.8,29.6,29.90,West,263,19.0,26.0,88,0.00,,,0.00,Wunderground v.1.15,2013-03-12 08:34:00,
2013-03-12 03:40:00,32.8,29.6,29.90,WSW,242,18.0,18.0,88,0.00,,,0.00,Wunderground v.1.15,2013-03-12 08:40:00,
2013-03-12 03:45:00,32.8,29.9,29.90,West,261,16.0,21.0,89,0.00,,,0.00,Wunderground v.1.15,2013-03-12 08:45:00,
2013-03-12 03:50:00,32.8,29.9,29.90,WSW,255,16.0,20.0,89,0.00,,,0.00,Wunderground v.1.15,2013-03-12 08:50:00,
2013-03-12 03:55:00,32.7,29.8,29.90,West,277,15.0,20.0,89,0.00,,,0.00,Wunderground v.1.15,2013-03-12 08:55:00,
2013-03-12 04:00:00,32.6,29.7,29.90,West,263,13.0,23.0,89,0.00,,,0.00,Wunderground v.1.15,2013-03-12 09:00:00,
2013-03-12 04:06:00,32.6,29.7,29.90,West,279,14.0,23.0,89,0.00,,,0.00,Wunderground v.1.15,2013-03-12 09:06:00,
2013-03-12 04:11:00,32.7,29.8,29.90,West,274,14.0,20.0,89,0.00,,,0.00,Wunderground v.1.15,2013-03-12 09:11:00,
2013-03-12 04:16:00,32.5,29.6,29.90,WNW,292,15.0,21.0,89,0.00,,,0.00,Wunderground v.1.15,2013-03-12 09:16:00,
2013-03-12 04:21:00,32.5,29.3,29.91,West,276,17.0,17.0,88,0.00,,,0.00,Wunderground v.1.15,2013-03-12 09:21:00,
2013-03-12 04:27:00,32.5,29.6,29.91,West,269,15.0,21.0,89,0.00,,,0.00,Wunderground v.1.15,2013-03-12 09:27:00,
2013-03-12 04:33:00,32.4,29.2,29.91,West,271,16.0,20.0,88,0.00,,,0.00,Wunderground v.1.15,2013-03-12 09:33:00,
2013-03-12 04:39:00,32.4,29.5,29.91,West,271,15.0,20.0,89,0.00,,,0.00,Wunderground v.1.15,2013-03-12 09:39:00,
2013-03-12 04:44:00,32.4,29.5,29.91,West,277,12.0,20.0,89,0.00,,,0.00,Wunderground v.1.15,2013-03-12 09:44:00,
2013-03-12 04:49:00,32.3,29.4,29.91,WNW,287,13.0,20.0,89,0.00,,,0.00,Wunderground v.1.15,2013-03-12 09:49:00,
2013-03-12 04:55:00,32.3,29.1,29.92,West,266,15.0,20.0,88,0.00,,,0.00,Wunderground v.1.15,2013-03-12 09:55:00,
2013-03-12 05:00:00,32.3,29.1,29.91,West,273,15.0,19.0,88,0.00,,,0.00,Wunderground v.1.15,2013-03-12 10:00:00,
2013-03-12 05:06:00,32.3,28.9,29.92,West,269,14.0,19.0,87,0.00,,,0.00,Wunderground v.1.15,2013-03-12 10:06:00,
2013-03-12 05:12:00,32.3,28.9,29.92,West,265,14.0,19.0,87,0.00,,,0.00,Wunderground v.1.15,2013-03-12 10:12:00,
2013-03-12 05:17:00,32.2,28.5,29.92,WSW,252,15.0,20.0,86,0.00,,,0.00,Wunderground v.1.15,2013-03-12 10:17:00,
2013-03-12 05:22:00,32.3,28.3,29.93,West,274,16.0,16.0,85,0.00,,,0.00,Wunderground v.1.15,2013-03-12 10:22:00,
2013-03-12 05:27:00,32.3,28.0,29.93,West,267,18.0,19.0,84,0.00,,,0.00,Wunderground v.1.15,2013-03-12 10:27:00,
2013-03-12 05:33:00,32.2,28.2,29.93,West,279,16.0,25.0,85,0.00,,,0.00,Wunderground v.1.15,2013-03-12 10:33:00,
2013-03-12 05:38:00,32.1,28.4,29.93,West,267,13.0,25.0,86,0.00,,,0.00,Wunderground v.1.15,2013-03-12 10:38:00,
2013-03-12 05:43:00,32.0,28.3,29.93,WSW,254,11.0,25.0,86,0.00,,,0.00,Wunderground v.1.15,2013-03-12 10:43:00,
2013-03-12 05:49:00,32.0,28.6,29.93,West,268,12.0,25.0,87,0.00,,,0.00,Wunderground v.1.15,2013-03-12 10:49:00,
2013-03-12 05:54:00,32.0,28.3,29.93,West,266,14.0,27.0,86,0.00,,,0.00,Wunderground v.1.15,2013-03-12 10:54:00,
2013-03-12 05:59:00,32.0,28.0,29.94,West,265,17.0,27.0,85,0.00,,,0.00,Wunderground v.1.15,2013-03-12 10:59:00,
2013-03-12 06:04:00,31.9,27.6,29.94,West,279,18.0,27.0,84,0.00,,,0.00,Wunderground v.1.15,2013-03-12 11:04:00,
2013-03-12 06:09:00,31.9,27.6,29.94,West,278,17.0,27.0,84,0.00,,,0.00,Wunderground v.1.15,2013-03-12 11:09:00,
2013-03-12 06:14:00,31.9,27.6,29.94,West,259,16.0,25.0,84,0.00,,,0.00,Wunderground v.1.15,2013-03-12 11:14:00,
2013-03-12 06:19:00,31.8,27.5,29.95,West,261,17.0,25.0,84,0.00,,,0.00,Wunderground v.1.15,2013-03-12 11:19:00,
2013-03-12 06:24:00,31.8,27.5,29.94,West,269,18.0,25.0,84,0.00,,,0.00,Wunderground v.1.15,2013-03-12 11:24:00,
2013-03-12 06:29:00,31.9,27.6,29.94,WSW,250,18.0,25.0,84,0.00,,,0.00,Wunderground v.1.15,2013-03-12 11:29:00,
2013-03-12 06:34:00,31.8,27.8,29.94,WSW,250,16.0,25.0,85,0.00,,,0.00,Wunderground v.1.15,2013-03-12 11:34:00,
2013-03-12 06:40:00,31.7,27.7,29.94,West,281,16.0,25.0,85,0.00,,,0.00,Wunderground v.1.15,2013-03-12 11:40:00,
2013-03-12 06:45:00,31.7,27.4,29.95,West,268,16.0,25.0,84,0.00,,,0.00,Wunderground v.1.15,2013-03-12 11:45:00,
2013-03-12 06:51:00,31.8,27.5,29.95,WSW,258,17.0,20.0,84,0.00,,,0.00,Wunderground v.1.15,2013-03-12 11:51:00,
2013-03-12 06:56:00,31.8,27.5,29.95,West,272,17.0,25.0,84,0.00,,,0.00,Wunderground v.1.15,2013-03-12 11:56:00,
2013-03-12 07:01:00,31.8,27.5,29.95,West,273,16.0,25.0,84,0.00,,,0.00,Wunderground v.1.15,2013-03-12 12:01:00,
2013-03-12 07:06:00,31.7,27.7,29.95,West,265,14.0,25.0,85,0.00,,,0.00,Wunderground v.1.15,2013-03-12 12:06:00,
2013-03-12 07:11:00,31.7,27.7,29.95,West,269,13.0,25.0,85,0.00,,,0.00,Wunderground v.1.15,2013-03-12 12:11:00,
2013-03-12 07:16:00,31.8,27.8,29.96,West,261,14.0,25.0,85,0.00,,,0.00,Wunderground v.1.15,2013-03-12 12:16:00,
2013-03-12 07:22:00,31.7,27.7,29.96,WSW,257,12.0,25.0,85,0.00,,,0.00,Wunderground v.1.15,2013-03-12 12:22:00,
2013-03-12 07:27:00,31.7,27.4,29.96,West,260,12.0,25.0,84,0.00,,,0.00,Wunderground v.1.15,2013-03-12 12:27:00,
2013-03-12 07:32:00,31.7,27.7,29.96,WSW,251,13.0,25.0,85,0.00,,,0.00,Wunderground v.1.15,2013-03-12 12:32:00,
2013-03-12 07:37:00,31.7,27.7,29.96,West,263,12.0,25.0,85,0.00,,,0.00,Wunderground v.1.15,2013-03-12 12:37:00,
2013-03-12 07:43:00,31.6,27.6,29.96,West,260,10.0,25.0,85,0.00,,,0.00,Wunderground v.1.15,2013-03-12 12:43:00,
2013-03-12 07:48:00,31.6,27.6,29.96,WNW,284,10.0,25.0,85,0.00,,,0.00,Wunderground v.1.15,2013-03-12 12:48:00,
2013-03-12 07:53:00,31.7,28.0,29.96,West,277,11.0,25.0,86,0.00,,,0.00,Wunderground v.1.15,2013-03-12 12:53:00,
2013-03-12 07:59:00,31.7,28.0,29.96,West,260,10.0,25.0,86,0.00,,,0.00,Wunderground v.1.15,2013-03-12 12:59:00,
2013-03-12 08:05:00,31.7,28.0,29.96,West,261,10.0,25.0,86,0.00,,,0.00,Wunderground v.1.15,2013-03-12 13:05:00,
2013-03-12 08:10:00,31.8,27.8,29.96,West,268,13.0,25.0,85,0.00,,,0.00,Wunderground v.1.15,2013-03-12 13:10:00,
2013-03-12 08:16:00,31.6,27.0,29.97,West,271,16.0,25.0,83,0.00,,,0.00,Wunderground v.1.15,2013-03-12 13:16:00,
2013-03-12 08:21:00,31.5,26.6,29.97,West,272,18.0,25.0,82,0.00,,,0.00,Wunderground v.1.15,2013-03-12 13:21:00,
2013-03-12 08:26:00,31.5,26.9,29.98,West,264,17.0,25.0,83,0.00,,,0.00,Wunderground v.1.15,2013-03-12 13:26:00,
2013-03-12 08:32:00,31.4,26.5,29.98,WNW,286,17.0,25.0,82,0.00,,,0.00,Wunderground v.1.15,2013-03-12 13:32:00,
2013-03-12 08:37:00,31.4,26.5,29.98,WSW,243,15.0,25.0,82,0.00,,,0.00,Wunderground v.1.15,2013-03-12 13:37:00,
2013-03-12 08:42:00,31.4,26.5,29.98,WSW,257,13.0,25.0,82,0.00,,,0.00,Wunderground v.1.15,2013-03-12 13:42:00,
2013-03-12 08:48:00,31.4,26.5,29.97,West,265,12.0,25.0,82,0.00,,,0.00,Wunderground v.1.15,2013-03-12 13:48:00,
2013-03-12 08:53:00,31.4,26.5,29.98,West,261,11.0,25.0,82,0.00,,,0.00,Wunderground v.1.15,2013-03-12 13:53:00,
2013-03-12 08:59:00,31.5,26.9,29.98,WSW,248,12.0,25.0,83,0.00,,,0.00,Wunderground v.1.15,2013-03-12 13:59:00,
2013-03-12 09:04:00,31.4,26.8,29.97,West,263,11.0,25.0,83,0.00,,,0.00,Wunderground v.1.15,2013-03-12 14:04:00,
2013-03-12 09:09:00,31.4,26.8,29.97,WSW,246,12.0,25.0,83,0.00,,,0.00,Wunderground v.1.15,2013-03-12 14:09:00,
2013-03-12 09:14:00,31.4,26.8,29.97,WSW,256,12.0,25.0,83,0.00,,,0.00,Wunderground v.1.15,2013-03-12 14:14:00,
2013-03-12 09:20:00,31.4,27.1,29.97,West,267,11.0,25.0,84,0.00,,,0.00,Wunderground v.1.15,2013-03-12 14:20:00,
2013-03-12 09:25:00,31.2,26.9,29.97,WSW,249,11.0,25.0,84,0.00,,,0.00,Wunderground v.1.15,2013-03-12 14:25:00,
2013-03-12 09:30:00,31.2,26.9,29.97,West,261,12.0,25.0,84,0.00,,,0.00,Wunderground v.1.15,2013-03-12 14:30:00,
2013-03-12 09:36:00,31.1,26.5,29.97,West,266,13.0,25.0,83,0.00,,,0.00,Wunderground v.1.15,2013-03-12 14:36:00,
2013-03-12 09:42:00,31.1,26.5,29.98,WSW,252,15.0,25.0,83,0.00,,,0.00,Wunderground v.1.15,2013-03-12 14:42:00,
2013-03-12 09:47:00,31.1,26.5,29.98,West,260,14.0,25.0,83,0.00,,,0.00,Wunderground v.1.15,2013-03-12 14:47:00,
2013-03-12 09:52:00,31.2,26.6,29.99,West,261,14.0,25.0,83,0.00,,,0.00,Wunderground v.1.15,2013-03-12 14:52:00,
2013-03-12 09:57:00,31.2,26.3,29.99,West,262,13.0,25.0,82,0.00,,,0.00,Wunderground v.1.15,2013-03-12 14:57:00,
2013-03-12 10:02:00,31.2,26.3,29.99,WSW,250,13.0,25.0,82,0.00,,,0.00,Wunderground v.1.15,2013-03-12 15:02:00,
2013-03-12 10:07:00,31.2,26.3,30.00,WSW,257,14.0,25.0,82,0.00,,,0.00,Wunderground v.1.15,2013-03-12 15:07:00,
2013-03-12 10:12:00,31.1,26.0,29.99,West,265,16.0,25.0,81,0.00,,,0.00,Wunderground v.1.15,2013-03-12 15:12:00,
2013-03-12 10:18:00,31.0,25.9,29.99,West,261,15.0,25.0,81,0.00,,,0.00,Wunderground v.1.15,2013-03-12 15:18:00,
2013-03-12 10:23:00,31.2,26.3,30.00,West,275,16.0,25.0,82,0.00,,,0.00,Wunderground v.1.15,2013-03-12 15:23:00,
2013-03-12 10:29:00,31.2,26.3,30.01,WSW,248,19.0,25.0,82,0.00,,,0.00,Wunderground v.1.15,2013-03-12 15:29:00,
2013-03-12 10:35:00,31.0,25.9,30.01,WSW,254,20.0,27.0,81,0.00,,,0.00,Wunderground v.1.15,2013-03-12 15:35:00,
2013-03-12 10:41:00,31.1,25.7,30.02,West,268,20.0,25.0,80,0.00,,,0.00,Wunderground v.1.15,2013-03-12 15:41:00,
2013-03-12 10:47:00,31.3,25.8,30.02,WSW,255,20.0,25.0,80,0.00,,,0.00,Wunderground v.1.15,2013-03-12 15:47:00,
2013-03-12 10:52:00,31.4,25.6,30.01,West,267,18.0,25.0,79,0.00,,,0.00,Wunderground v.1.15,2013-03-12 15:52:00,
2013-03-12 10:58:00,31.4,25.6,30.00,West,267,15.0,25.0,79,0.00,,,0.00,Wunderground v.1.15,2013-03-12 15:58:00,
2013-03-12 11:03:00,31.5,25.7,30.00,West,266,14.0,25.0,79,0.00,,,0.00,Wunderground v.1.15,2013-03-12 16:03:00,
2013-03-12 11:08:00,31.6,25.5,30.01,WSW,243,16.0,25.0,78,0.00,,,0.00,Wunderground v.1.15,2013-03-12 16:08:00,
2013-03-12 11:13:00,31.8,25.7,30.02,WSW,249,17.0,25.0,78,0.00,,,0.00,Wunderground v.1.15,2013-03-12 16:13:00,
2013-03-12 11:19:00,32.2,26.4,30.01,WSW,255,16.0,25.0,79,0.00,,,0.00,Wunderground v.1.15,2013-03-12 16:19:00,
2013-03-12 11:24:00,32.5,26.4,30.01,SW,234,14.0,25.0,78,0.00,,,0.00,Wunderground v.1.15,2013-03-12 16:24:00,
2013-03-12 11:29:00,32.8,26.7,30.01,WSW,257,13.0,25.0,78,0.00,,,0.00,Wunderground v.1.15,2013-03-12 16:29:00,
2013-03-12 11:34:00,32.9,26.8,30.01,WSW,254,14.0,25.0,78,0.00,,,0.00,Wunderground v.1.15,2013-03-12 16:34:00,
2013-03-12 11:39:00,33.0,26.9,30.01,WSW,256,15.0,25.0,78,0.00,,,0.00,Wunderground v.1.15,2013-03-12 16:39:00,
2013-03-12 11:45:00,33.0,26.6,30.01,WSW,255,16.0,25.0,77,0.00,,,0.00,Wunderground v.1.15,2013-03-12 16:45:00,
2013-03-12 11:50:00,33.3,26.9,30.01,WSW,256,16.0,25.0,77,0.00,,,0.00,Wunderground v.1.15,2013-03-12 16:50:00,
2013-03-12 11:55:00,33.6,27.5,30.01,WSW,252,16.0,25.0,78,0.00,,,0.00,Wunderground v.1.15,2013-03-12 16:55:00,
2013-03-12 12:00:00,33.9,27.8,30.00,West,259,15.0,15.0,78,0.00,,,0.00,Wunderground v.1.15,2013-03-12 17:00:00,
2013-03-12 12:05:00,33.9,27.8,30.00,West,281,14.0,25.0,78,0.00,,,0.00,Wunderground v.1.15,2013-03-12 17:05:00,
2013-03-12 12:10:00,34.1,27.6,30.01,WSW,254,16.0,16.0,77,0.00,,,0.00,Wunderground v.1.15,2013-03-12 17:10:00,
2013-03-12 12:16:00,34.1,27.6,30.00,WSW,257,17.0,25.0,77,0.00,,,0.00,Wunderground v.1.15,2013-03-12 17:16:00,
2013-03-12 12:21:00,34.4,27.9,30.00,WSW,252,16.0,25.0,77,0.00,,,0.00,Wunderground v.1.15,2013-03-12 17:21:00,
2013-03-12 12:26:00,34.3,28.2,30.00,WSW,238,14.0,25.0,78,0.00,,,0.00,Wunderground v.1.15,2013-03-12 17:26:00,
2013-03-12 12:32:00,34.7,28.5,30.00,WSW,246,15.0,25.0,78,0.00,,,0.00,Wunderground v.1.15,2013-03-12 17:32:00,
2013-03-12 12:38:00,34.9,28.4,30.00,WSW,243,15.0,25.0,77,0.00,,,0.00,Wunderground v.1.15,2013-03-12 17:38:00,
2013-03-12 12:43:00,35.5,29.6,30.01,WSW,247,13.0,25.0,79,0.00,,,0.00,Wunderground v.1.15,2013-03-12 17:43:00,
2013-03-12 12:49:00,35.2,28.7,30.01,West,269,14.0,25.0,77,0.00,,,0.00,Wunderground v.1.15,2013-03-12 17:49:00,
2013-03-12 12:54:00,35.1,28.6,30.01,West,267,17.0,25.0,77,0.00,,,0.00,Wunderground v.1.15,2013-03-12 17:54:00,
2013-03-12 13:00:00,35.6,28.8,30.01,West,274,17.0,17.0,76,0.00,,,0.00,Wunderground v.1.15,2013-03-12 18:00:00,
2013-03-12 13:05:00,35.6,29.4,30.01,West,276,17.0,25.0,78,0.00,,,0.00,Wunderground v.1.15,2013-03-12 18:05:00,
2013-03-12 13:11:00,36.1,29.3,30.00,WSW,256,17.0,25.0,76,0.00,,,0.00,Wunderground v.1.15,2013-03-12 18:11:00,
2013-03-12 13:16:00,36.3,29.8,30.00,WNW,283,16.0,25.0,77,0.00,,,0.00,Wunderground v.1.15,2013-03-12 18:16:00,
2013-03-12 13:21:00,37.0,29.8,30.00,WNW,292,16.0,25.0,75,0.00,,,0.00,Wunderground v.1.15,2013-03-12 18:21:00,
2013-03-12 13:27:00,37.7,29.8,29.99,West,265,17.0,25.0,73,0.00,,,0.00,Wunderground v.1.15,2013-03-12 18:27:00,
2013-03-12 13:32:00,37.5,29.6,29.99,West,269,17.0,25.0,73,0.00,,,0.00,Wunderground v.1.15,2013-03-12 18:32:00,
2013-03-12 13:37:00,37.1,29.6,29.99,West,279,17.0,25.0,74,0.00,,,0.00,Wunderground v.1.15,2013-03-12 18:37:00,
2013-03-12 13:42:00,37.5,29.6,29.98,West,259,16.0,25.0,73,0.00,,,0.00,Wunderground v.1.15,2013-03-12 18:42:00,
2013-03-12 13:47:00,38.0,29.8,29.98,West,275,14.0,25.0,72,0.00,,,0.00,Wunderground v.1.15,2013-03-12 18:47:00,
2013-03-12 13:53:00,38.0,29.4,29.98,WSW,254,13.0,25.0,71,0.00,,,0.00,Wunderground v.1.15,2013-03-12 18:53:00,
2013-03-12 13:58:00,39.3,30.7,29.99,West,265,12.0,25.0,71,0.00,,,0.00,Wunderground v.1.15,2013-03-12 18:58:00,
2013-03-12 14:03:00,38.3,29.4,29.98,West,263,15.0,25.0,70,0.00,,,0.00,Wunderground v.1.15,2013-03-12 19:03:00,
2013-03-12 14:08:00,38.7,29.8,29.99,West,267,19.0,25.0,70,0.00,,,0.00,Wunderground v.1.15,2013-03-12 19:08:00,
2013-03-12 14:13:00,39.3,30.7,29.99,West,265,18.0,25.0,71,0.00,,,0.00,Wunderground v.1.15,2013-03-12 19:13:00,
2013-03-12 14:18:00,38.8,28.8,29.99,WSW,244,16.0,25.0,67,0.00,,,0.00,Wunderground v.1.15,2013-03-12 19:18:00,
2013-03-12 14:24:00,39.0,30.0,29.99,West,259,17.0,25.0,70,0.00,,,0.00,Wunderground v.1.15,2013-03-12 19:24:00,
2013-03-12 14:29:00,39.1,30.1,29.99,West,279,18.0,25.0,70,0.00,,,0.00,Wunderground v.1.15,2013-03-12 19:29:00,
2013-03-12 14:34:00,38.9,28.9,29.99,WSW,258,20.0,25.0,67,0.00,,,0.00,Wunderground v.1.15,2013-03-12 19:34:00,
2013-03-12 14:39:00,39.0,29.3,29.99,WSW,257,22.0,25.0,68,0.00,,,0.00,Wunderground v.1.15,2013-03-12 19:39:00,
2013-03-12 14:44:00,39.0,29.7,29.99,West,264,22.0,27.0,69,0.00,,,0.00,Wunderground v.1.15,2013-03-12 19:44:00,
2013-03-12 14:49:00,38.9,29.9,29.99,West,261,21.0,27.0,70,0.00,,,0.00,Wunderground v.1.15,2013-03-12 19:49:00,
2013-03-12 14:55:00,39.2,29.9,29.99,West,260,20.0,26.0,69,0.00,,,0.00,Wunderground v.1.15,2013-03-12 19:55:00,
2013-03-12 15:00:00,39.1,29.4,29.98,West,265,21.0,26.0,68,0.00,,,0.00,Wunderground v.1.15,2013-03-12 20:00:00,
2013-03-12 15:05:00,40.1,30.4,29.98,WNW,286,22.0,26.0,68,0.00,,,0.00,Wunderground v.1.15,2013-03-12 20:05:00,
2013-03-12 15:11:00,39.4,29.0,29.98,West,270,20.0,25.0,66,0.00,,,0.00,Wunderground v.1.15,2013-03-12 20:11:00,
2013-03-12 15:16:00,39.3,29.3,29.98,West,259,18.0,25.0,67,0.00,,,0.00,Wunderground v.1.15,2013-03-12 20:16:00,
2013-03-12 15:21:00,39.9,30.2,29.97,West,269,17.0,25.0,68,0.00,,,0.00,Wunderground v.1.15,2013-03-12 20:21:00,
2013-03-12 15:27:00,40.2,29.0,29.98,West,261,19.0,27.0,64,0.00,,,0.00,Wunderground v.1.15,2013-03-12 20:27:00,
2013-03-12 15:33:00,39.6,28.8,29.98,WNW,284,21.0,25.0,65,0.00,,,0.00,Wunderground v.1.15,2013-03-12 20:33:00,
2013-03-12 15:39:00,40.0,29.2,29.98,WSW,256,20.0,25.0,65,0.00,,,0.00,Wunderground v.1.15,2013-03-12 20:39:00,
2013-03-12 15:44:00,40.1,28.9,29.98,West,266,20.0,27.0,64,0.00,,,0.00,Wunderground v.1.15,2013-03-12 20:44:00,
2013-03-12 15:49:00,39.7,28.9,29.99,WSW,252,22.0,27.0,65,0.00,,,0.00,Wunderground v.1.15,2013-03-12 20:49:00,
2013-03-12 15:55:00,39.3,28.9,29.99,West,274,21.0,25.0,66,0.00,,,0.00,Wunderground v.1.15,2013-03-12 20:55:00,
2013-03-12 16:00:00,39.2,28.8,29.99,West,265,18.0,25.0,66,0.00,,,0.00,Wunderground v.1.15,2013-03-12 21:00:00,
2013-03-12 16:06:00,39.3,29.3,29.99,West,271,16.0,25.0,67,0.00,,,0.00,Wunderground v.1.15,2013-03-12 21:06:00,
2013-03-12 16:11:00,39.3,28.5,29.99,West,267,17.0,25.0,65,0.00,,,0.00,Wunderground v.1.15,2013-03-12 21:11:00,
2013-03-12 16:16:00,39.2,28.8,29.99,West,275,18.0,25.0,66,0.00,,,0.00,Wunderground v.1.15,2013-03-12 21:16:00,
2013-03-12 16:21:00,38.9,28.9,29.99,West,265,19.0,25.0,67,0.00,,,0.00,Wunderground v.1.15,2013-03-12 21:21:00,
2013-03-12 16:27:00,38.8,28.0,30.00,West,266,19.0,25.0,65,0.00,,,0.00,Wunderground v.1.15,2013-03-12 21:27:00,
2013-03-12 16:33:00,38.9,29.6,30.00,West,270,18.0,25.0,69,0.00,,,0.00,Wunderground v.1.15,2013-03-12 21:33:00,
2013-03-12 16:39:00,38.7,28.7,30.00,West,266,17.0,25.0,67,0.00,,,0.00,Wunderground v.1.15,2013-03-12 21:39:00,
2013-03-12 16:44:00,38.7,29.8,30.00,WSW,251,18.0,25.0,70,0.00,,,0.00,Wunderground v.1.15,2013-03-12 21:44:00,
2013-03-12 16:49:00,38.5,28.5,30.00,West,263,17.0,25.0,67,0.00,,,0.00,Wunderground v.1.15,2013-03-12 21:49:00,
2013-03-12 16:54:00,38.4,28.4,30.00,West,278,16.0,25.0,67,0.00,,,0.00,Wunderground v.1.15,2013-03-12 21:54:00,
2013-03-12 16:59:00,38.4,28.4,30.00,West,268,17.0,25.0,67,0.00,,,0.00,Wunderground v.1.15,2013-03-12 21:59:00,
2013-03-12 17:04:00,38.4,27.7,30.00,WNW,282,18.0,25.0,65,0.00,,,0.00,Wunderground v.1.15,2013-03-12 22:04:00,
2013-03-12 17:10:00,38.4,28.8,30.00,West,263,17.0,17.0,68,0.00,,,0.00,Wunderground v.1.15,2013-03-12 22:10:00,
2013-03-12 17:16:00,38.4,29.1,30.00,West,261,16.0,25.0,69,0.00,,,0.00,Wunderground v.1.15,2013-03-12 22:16:00,
2013-03-12 17:21:00,38.2,28.6,30.00,WSW,257,14.0,25.0,68,0.00,,,0.00,Wunderground v.1.15,2013-03-12 22:21:00,
2013-03-12 17:26:00,38.2,28.9,30.00,West,259,13.0,25.0,69,0.00,,,0.00,Wunderground v.1.15,2013-03-12 22:26:00,
2013-03-12 17:32:00,38.2,28.9,30.00,West,261,12.0,25.0,69,0.00,,,0.00,Wunderground v.1.15,2013-03-12 22:32:00,
2013-03-12 17:37:00,38.0,28.7,30.00,West,260,13.0,25.0,69,0.00,,,0.00,Wunderground v.1.15,2013-03-12 22:37:00,
2013-03-12 17:42:00,38.0,29.8,30.00,West,266,14.0,25.0,72,0.00,,,0.00,Wunderground v.1.15,2013-03-12 22:42:00,
2013-03-12 17:47:00,37.9,29.3,30.01,West,267,13.0,25.0,71,0.00,,,0.00,Wunderground v.1.15,2013-03-12 22:47:00,
2013-03-12 17:52:00,37.9,30.0,30.01,West,261,12.0,25.0,73,0.00,,,0.00,Wunderground v.1.15,2013-03-12 22:52:00,
2013-03-12 17:57:00,37.8,29.9,30.00,West,272,11.0,25.0,73,0.00,,,0.00,Wunderground v.1.15,2013-03-12 22:57:00,
2013-03-12 18:03:00,38.0,30.1,30.01,WSW,255,12.0,25.0,73,0.00,,,0.00,Wunderground v.1.15,2013-03-12 23:03:00,
2013-03-12 18:08:00,38.0,30.1,30.01,West,274,12.0,25.0,73,0.00,,,0.00,Wunderground v.1.15,2013-03-12 23:08:00,
2013-03-12 18:13:00,38.0,29.8,30.01,West,260,11.0,25.0,72,0.00,,,0.00,Wunderground v.1.15,2013-03-12 23:13:00,
2013-03-12 18:18:00,37.8,29.6,30.01,WSW,254,10.0,25.0,72,0.00,,,0.00,Wunderground v.1.15,2013-03-12 23:18:00,
2013-03-12 18:23:00,37.6,29.7,30.00,West,265,9.0,25.0,73,0.00,,,0.00,Wunderground v.1.15,2013-03-12 23:23:00,
2013-03-12 18:28:00,37.4,29.5,30.00,West,273,8.0,25.0,73,0.00,,,0.00,Wunderground v.1.15,2013-03-12 23:28:00,
2013-03-12 18:34:00,37.3,29.4,30.00,West,264,8.0,25.0,73,0.00,,,0.00,Wunderground v.1.15,2013-03-12 23:34:00,
2013-03-12 18:39:00,37.1,29.6,30.00,WSW,255,8.0,25.0,74,0.00,,,0.00,Wunderground v.1.15,2013-03-12 23:39:00,
2013-03-12 18:44:00,36.5,29.7,30.00,WSW,257,7.0,25.0,76,0.00,,,0.00,Wunderground v.1.15,2013-03-12 23:44:00,
2013-03-12 18:49:00,35.9,29.4,30.00,WSW,240,4.0,25.0,77,0.00,,,0.00,Wunderground v.1.15,2013-03-12 23:49:00,
2013-03-12 18:55:00,35.4,29.8,30.00,WSW,241,4.0,25.0,80,0.00,,,0.00,Wunderground v.1.15,2013-03-12 23:55:00,
2013-03-12 19:00:00,35.1,29.9,30.00,SW,229,4.0,25.0,81,0.00,,,0.00,Wunderground v.1.15,2013-03-13 00:00:00,
2013-03-12 19:06:00,35.2,30.3,30.00,SW,231,4.0,25.0,82,0.00,,,0.00,Wunderground v.1.15,2013-03-13 00:06:00,
2013-03-12 19:11:00,35.2,30.3,30.01,SW,232,3.0,25.0,82,0.00,,,0.00,Wunderground v.1.15,2013-03-13 00:11:00,
2013-03-12 19:16:00,35.1,30.5,30.01,SW,226,3.0,25.0,83,0.00,,,0.00,Wunderground v.1.15,2013-03-13 00:16:00,
2013-03-12 19:22:00,35.2,30.6,30.01,SW,232,4.0,25.0,83,0.00,,,0.00,Wunderground v.1.15,2013-03-13 00:22:00,
2013-03-12 19:28:00,35.2,30.9,30.02,West,265,4.0,25.0,84,0.00,,,0.00,Wunderground v.1.15,2013-03-13 00:28:00,
2013-03-12 19:33:00,34.9,31.1,30.02,West,275,9.0,25.0,86,0.00,,,0.00,Wunderground v.1.15,2013-03-13 00:33:00,
2013-03-12 19:38:00,34.3,31.1,30.03,West,269,13.0,25.0,88,0.00,,,0.00,Wunderground v.1.15,2013-03-13 00:38:00,
2013-03-12 19:44:00,33.6,31.0,30.03,West,275,13.0,25.0,90,0.00,,,0.00,Wunderground v.1.15,2013-03-13 00:44:00,
2013-03-12 19:50:00,33.3,31.0,30.03,West,261,12.0,12.0,91,0.00,,,0.00,Wunderground v.1.15,2013-03-13 00:50:00,
2013-03-12 19:55:00,33.2,31.1,30.03,West,270,9.0,25.0,92,0.00,,,0.00,Wunderground v.1.15,2013-03-13 00:55:00,
2013-03-12 20:00:00,33.1,31.0,30.03,West,275,9.0,25.0,92,0.00,,,0.00,Wunderground v.1.15,2013-03-13 01:00:00,
2013-03-12 20:06:00,33.0,31.2,30.03,West,281,9.0,25.0,93,0.00,,,0.00,Wunderground v.1.15,2013-03-13 01:06:00,
2013-03-12 20:11:00,33.0,31.2,30.04,West,259,9.0,10.0,93,0.00,,,0.00,Wunderground v.1.15,2013-03-13 01:11:00,
2013-03-12 20:17:00,33.1,31.6,30.04,West,265,9.0,25.0,94,0.00,,,0.00,Wunderground v.1.15,2013-03-13 01:17:00,
2013-03-12 20:22:00,33.1,31.6,30.03,West,267,9.0,25.0,94,0.00,,,0.00,Wunderground v.1.15,2013-03-13 01:22:00,
2013-03-12 20:27:00,33.1,31.6,30.03,WSW,256,10.0,25.0,94,0.00,,,0.00,Wunderground v.1.15,2013-03-13 01:27:00,
2013-03-12 20:33:00,33.1,31.6,30.03,West,261,10.0,25.0,94,0.00,,,0.00,Wunderground v.1.15,2013-03-13 01:33:00,
2013-03-12 20:38:00,33.1,31.6,30.03,West,272,10.0,25.0,94,0.00,,,0.00,Wunderground v.1.15,2013-03-13 01:38:00,
2013-03-12 20:43:00,33.1,31.6,30.03,West,263,10.0,25.0,94,0.00,,,0.00,Wunderground v.1.15,2013-03-13 01:43:00,
2013-03-12 20:49:00,33.1,31.8,30.04,WSW,258,11.0,25.0,95,0.00,,,0.00,Wunderground v.1.15,2013-03-13 01:49:00,
2013-03-12 20:54:00,33.0,31.7,30.04,West,269,11.0,25.0,95,0.00,,,0.00,Wunderground v.1.15,2013-03-13 01:54:00,
2013-03-12 20:59:00,33.0,31.5,30.04,West,260,10.0,25.0,94,0.00,,,0.00,Wunderground v.1.15,2013-03-13 01:59:00,
2013-03-12 21:04:00,33.0,31.5,30.04,West,261,9.0,25.0,94,0.00,,,0.00,Wunderground v.1.15,2013-03-13 02:04:00,
2013-03-12 21:09:00,32.9,31.4,30.04,WSW,257,9.0,25.0,94,0.00,,,0.00,Wunderground v.1.15,2013-03-13 02:09:00,
2013-03-12 21:14:00,32.8,31.3,30.04,WSW,257,10.0,25.0,94,0.00,,,0.00,Wunderground v.1.15,2013-03-13 02:14:00,
2013-03-12 21:19:00,32.8,31.3,30.04,WSW,256,10.0,25.0,94,0.00,,,0.00,Wunderground v.1.15,2013-03-13 02:19:00,
2013-03-12 21:25:00,32.7,31.2,30.05,West,266,9.0,25.0,94,0.00,,,0.00,Wunderground v.1.15,2013-03-13 02:25:00,
2013-03-12 21:47:00,32.4,30.9,30.04,West,263,8.0,25.0,94,0.00,,,0.00,Wunderground v.1.15,2013-03-13 02:47:00,
2013-03-12 21:52:00,32.3,30.5,30.04,WSW,255,7.0,25.0,93,0.00,,,0.00,Wunderground v.1.15,2013-03-13 02:52:00,
2013-03-12 21:57:00,32.2,30.4,30.04,West,262,7.0,25.0,93,0.00,,,0.00,Wunderground v.1.15,2013-03-13 02:57:00,
2013-03-12 22:02:00,32.1,30.3,30.04,WSW,258,7.0,25.0,93,0.00,,,0.00,Wunderground v.1.15,2013-03-13 03:02:00,
2013-03-12 22:07:00,31.9,30.1,30.04,West,267,6.0,25.0,93,0.00,,,0.00,Wunderground v.1.15,2013-03-13 03:07:00,
2013-03-12 22:13:00,31.9,30.1,30.04,WSW,258,7.0,25.0,93,0.00,,,0.00,Wunderground v.1.15,2013-03-13 03:13:00,
2013-03-12 22:18:00,31.8,30.0,30.04,WSW,254,7.0,25.0,93,0.00,,,0.00,Wunderground v.1.15,2013-03-13 03:18:00,
2013-03-12 22:23:00,31.7,29.9,30.04,WSW,253,6.0,25.0,93,0.00,,,0.00,Wunderground v.1.15,2013-03-13 03:23:00,
2013-03-12 22:28:00,31.7,29.9,30.04,West,262,6.0,25.0,93,0.00,,,0.00,Wunderground v.1.15,2013-03-13 03:28:00,
2013-03-12 22:33:00,31.8,30.0,30.04,WSW,241,7.0,25.0,93,0.00,,,0.00,Wunderground v.1.15,2013-03-13 03:33:00,
2013-03-12 22:39:00,31.8,30.0,30.04,WSW,249,7.0,25.0,93,0.00,,,0.00,Wunderground v.1.15,2013-03-13 03:39:00,
2013-03-12 22:44:00,31.9,30.1,30.04,WSW,245,7.0,25.0,93,0.00,,,0.00,Wunderground v.1.15,2013-03-13 03:44:00,
2013-03-12 22:50:00,32.0,30.2,30.04,WSW,248,8.0,25.0,93,0.00,,,0.00,Wunderground v.1.15,2013-03-13 03:50:00,
2013-03-12 22:56:00,32.0,30.2,30.04,West,263,9.0,25.0,93,0.00,,,0.00,Wunderground v.1.15,2013-03-13 03:56:00,
2013-03-12 23:00:00,32.1,30.3,30.04,West,267,10.0,25.0,93,0.00,,,0.00,Wunderground v.1.15,2013-03-13 04:00:00,
2013-03-12 23:01:00,32.1,30.3,30.04,West,267,10.0,25.0,93,0.00,,,0.00,Wunderground v.1.15,2013-03-13 04:01:00,
2013-03-12 23:05:00,32.2,30.1,30.04,West,270,10.0,25.0,92,0.00,,,0.00,Wunderground v.1.15,2013-03-13 04:05:00,
2013-03-12 23:10:00,32.3,30.2,30.04,West,261,11.0,11.0,92,0.00,,,0.00,Wunderground v.1.15,2013-03-13 04:10:00,
2013-03-12 23:15:00,32.3,30.0,30.04,West,259,11.0,25.0,91,0.00,,,0.00,Wunderground v.1.15,2013-03-13 04:15:00,
2013-03-12 23:20:00,32.3,30.0,30.04,WSW,258,12.0,25.0,91,0.00,,,0.00,Wunderground v.1.15,2013-03-13 04:20:00,
2013-03-12 23:26:00,32.3,29.7,30.04,West,269,14.0,25.0,90,0.00,,,0.00,Wunderground v.1.15,2013-03-13 04:26:00,
2013-03-12 23:31:00,32.1,29.5,30.05,WSW,248,15.0,16.0,90,0.00,,,0.00,Wunderground v.1.15,2013-03-13 04:31:00,
2013-03-12 23:36:00,31.7,29.4,30.05,West,261,16.0,25.0,91,0.00,,,0.00,Wunderground v.1.15,2013-03-13 04:36:00,
2013-03-12 23:41:00,31.5,29.4,30.05,West,266,16.0,25.0,92,0.00,,,0.00,Wunderground v.1.15,2013-03-13 04:41:00,
2013-03-12 23:46:00,31.4,29.3,30.05,West,269,15.0,25.0,92,0.00,,,0.00,Wunderground v.1.15,2013-03-13 04:46:00,
2013-03-12 23:51:00,31.2,28.9,30.05,West,277,15.0,18.0,91,0.00,,,0.00,Wunderground v.1.15,2013-03-13 04:51:00,
2013-03-12 23:56:00,31.2,28.6,30.05,West,267,14.0,25.0,90,0.00,,,0.00,Wunderground v.1.15,2013-03-13 04:56:00,